Tracking 30101 objects as of 14-Dec-2024
HD Live streaming from Space Station
objects crossing your sky now

ANIK F2

Track ANIK F2 now!
ANIK F2 is classified as:


NORAD ID: 28378
Int'l Code: 2004-027A
Perigee: 35,792.4 km
Apogee: 35,795.3 km
Inclination: 1.9 °
Period: 1,436.1 minutes
Semi major axis: 42164 km
RCS: 28.1838 m2 (large)
Launch date: July 18, 2004
Source: Canada (CA)
Launch site: FRENCH GUIANA (FRGUI)

24 30W C-band, 40 127W Ku-band, 50 90W transponders for broadband and telemedicine to northern US states and Canada
Your satellite tracking list
Your tracking list is empty




NASA's NSSDC Master Catalog

Two Line Element Set (TLE):
1 28378U 04027A   24348.48071472 -.00000037  00000-0  00000-0 0  9996
2 28378   1.8623  86.8140 0000343 158.5422 259.2155  1.00271251 35741
Source of the keplerian elements: AFSPC